THORAD AGENA D DEB, 5507

Orbit data source: Space-Track

THORAD AGENA D DEB, 5507 is space debris in SSO originally from a launch on Wed, 08 Apr 1970 UTC launched from the Air Force Western Test Range (AFWTR). Debris objects in space refer to the collection of defunct objects orbiting the Earth. Examples of debris include non-operational satellites, rocket bodies, and fragments generated from explosions, collisions, or faulty payload assembly.

Loading next visibility...
Identifier
5507, 1970-025LL
Orbit
SSO
Country
Flag of USUS
Related business
Manufacturer
Unknown
Mission
Spacecraft
Bus & Motor
Unknown
Mass
Unknown
Launch date (UTC)
1970-04-08 (56 years ago)
Launch vehicle
Unknown
Launch site
Air Force Western Test Range (AFWTR)
Object type
Payload
Rocket body
Debris
Shape & HBR
Unknown shape, 0.1 m
Radar Cross Section
Small (<0.1 m²)

Expand to show TLE details & history
Last TLE update: 2 days ago

TLE from 2 days ago
0 THORAD AGENA D DEB
1 05507U 70025LL  25300.50415668  .00005841  00000-0  20906-2 0  9993
2 05507  99.2882 323.5089 0024748  30.1521 330.1080 14.34252202818405
Epoch: 2025-10-27T12:05Z
TLE epoch observation values (Epoch: 2025-10-27T12:05:59.137Z)
Latitude
-0.00001°
Longitude
105.90744°
Altitude
765.122 km
Speed
7.48 km/s
True Right ascension
21h 34m 02s
True Declination
0° 00' 00"
Sunlit
Object was in daylight at epoch
Visualization orbit readout
Latitude
Unknown
Longitude
Unknown
Altitude
Unknown
Speed
Unknown
Apparent Right ascension
Unknown
Apparent Declination
Unknown
Sunlit
N/A
Visualization observer readout
Local Sidereal Time
21:15:41
Azimuth
Unknown
Elevation
Unknown
Doppler factor
Unknown
Orbital elements
Apogee altitude
792.423 km
Perigee altitude
757.019 km
Semi-major axis
7,152.858 km
Eccentricity
0.00247
Inclination
99.2882°
RAAN
323.5089°
Arg. of periapsis
30.1521°
True anomaly
329.96629°
Mean anomaly
330.108°
Eccentric anomaly
330.03718°
Mean motion
3.58776 °/min
Orbital period
100.34 mins
BSTAR
0.0020906
Loading maneuver chart data...
Computing Atmospheric mass density...

Documentation

Showing up to 5 results
|